Tracking 17155 objects as of 28-July-2015
HD Live streaming from Space Station

CHINASAT 5B (SINOSAT 1)

Track CHINASAT 5B (SINOSAT 1) now!
CHINASAT 5B (SINOSAT 1) is classified as:


NORAD ID: 25404
Int'l Code: 1998-044A
Perigee: 36,059.9 km
Apogee: 36,147.6 km
Inclination: 3.1 °
Period: 1,452.0 minutes
Semi major axis: 42474 km
RCS: 25.1188 m2 (large)
Launch date: July 18, 1998
Source: People's Republic of China (PRC)

11 C-band, broadcasting, business services, direct-to-home TV broadcasting, telecommunications, VSAT networks; Asia Pacific region.
Your satellite tracking list
Your tracking list is empty





NASA's NSSDC Master Catalog

Two Line Element Set (TLE):
1 25404U 98044A   15209.12260249  .00000088  00000-0  00000+0 0  9998
2 25404 003.0842 069.6642 0010324 105.6506 232.7610 00.99176118 62450

Source of the keplerian elements: AFSPC

N2YO: 295